Location: Home
(40.5300°N, 105.0300°W)
Time: 07:50:46
(UTC-06:00)

STARLINK-2742 - Visible Passes

Search period start: 22 October 2021 00:00
Search period end: 01 November 2021 00:00
Orbit: 445 x 448 km, 53.0° (Epoch: 22 October)

Date Brightness Start Highest point End Pass type
(mag) Time Alt. Az. Time Alt. Az. Time Alt. Az.
22 Oct 5.7 04:53:26 19° NE 04:53:26 19° NE 04:54:34 10° NE visible
22 Oct 5.1 06:27:01 13° NW 06:28:49 17° NNW 06:31:17 10° NNE visible
23 Oct 4.9 05:51:34 20° NNW 05:51:34 20° NNW 05:54:16 10° NNE visible
24 Oct 5.5 05:17:42 17° NNE 05:17:42 17° NNE 05:18:59 10° NNE visible
24 Oct 5.6 06:53:27 10° NNW 06:54:39 11° N 06:55:51 10° NNE visible
25 Oct 5.6 06:19:34 10° NNW 06:20:57 12° N 06:22:20 10° NNE visible
26 Oct 5.6 05:48:54 12° NNW 05:49:02 12° N 05:50:35 10° NNE visible
27 Oct 6.0 05:20:06 11° N 05:20:06 11° N 05:20:35 10° NNE visible
27 Oct 5.7 06:56:27 10° NNW 06:58:06 13° N 06:59:45 10° NE visible
28 Oct 5.7 06:28:19 10° NNW 06:29:52 12° N 06:31:25 10° NE visible
29 Oct 5.8 06:01:56 10° NNW 06:03:25 12° N 06:04:54 10° NNE visible
30 Oct 5.8 05:38:19 12° N 05:38:46 12° N 05:40:13 10° NNE visible
31 Oct 6.1 05:16:27 12° NNE 05:16:27 12° NNE 05:17:21 10° NNE visible
31 Oct 4.9 06:52:07 10° NNW 06:55:18 28° NNE 06:58:33 10° E visible
